Satellite: HUBBLE
Catalog number: 20580
Epoch time:      06144.54277658
Element set:    0635
Inclination:      028.4678 deg
RA of node:       204.0237 deg
Eccentricity:    0.0003498
Arg of perigee:   292.6345 deg
Mean anomaly:     067.3872 deg
Mean motion:   15.00040004 rev/day
Decay rate:       4.10e-06 rev/day^2
Epoch rev:           68154
Checksum:              281

Satellite: UARS
Catalog number: 21701
Epoch time:      06144.93681775
Element set:    0789
Inclination:      056.9755 deg
RA of node:       192.6491 deg
Eccentricity:    0.0106334
Arg of perigee:   162.0178 deg
Mean anomaly:     198.4694 deg
Mean motion:   15.43583911 rev/day
Decay rate:      4.347e-05 rev/day^2
Epoch rev:           80571
Checksum:              335

Satellite: PO-34
Catalog number: 25520
Epoch time:      06144.59421903
Element set:    0473
Inclination:      028.4592 deg
RA of node:       188.9823 deg
Eccentricity:    0.0005210
Arg of perigee:   345.7510 deg
Mean anomaly:     014.2939 deg
Mean motion:   15.16713354 rev/day
Decay rate:       5.61e-06 rev/day^2
Epoch rev:           41846
Checksum:              294

Satellite: ISS
Catalog number: 25544
Epoch time:      06145.87016829
Element set:     997
Inclination:      051.6348 deg
RA of node:       302.3914 deg
Eccentricity:    0.0008917
Arg of perigee:   247.1268 deg
Mean anomaly:     272.7304 deg
Mean motion:   15.75602936 rev/day
Decay rate:     1.4452e-04 rev/day^2
Epoch rev:           42964
Checksum:              323

Satellite: OO-38
Catalog number: 26063
Epoch time:      06144.80858514
Element set:    0627
Inclination:      100.1887 deg
RA of node:       071.6394 deg
Eccentricity:    0.0036833
Arg of perigee:   172.6526 deg
Mean anomaly:     187.5195 deg
Mean motion:   14.35765787 rev/day
Decay rate:       -1.1e-07 rev/day^2
Epoch rev:           33132
Checksum:              319

Satellite: NO-45
Catalog number: 26932
Epoch time:      06144.92693724
Element set:    0324
Inclination:      067.0566 deg
RA of node:       067.2923 deg
Eccentricity:    0.0008863
Arg of perigee:   264.8415 deg
Mean anomaly:     095.1673 deg
Mean motion:   14.29526145 rev/day
Decay rate:        3.3e-07 rev/day^2
Epoch rev:           24264
Checksum:              316

Satellite: UWE-1
Catalog number: 28892
Epoch time:      06144.74780331
Element set:     458
Inclination:      098.1662 deg
RA of node:       043.3399 deg
Eccentricity:    0.0016381
Arg of perigee:   243.6373 deg
Mean anomaly:     116.3157 deg
Mean motion:   14.59353071 rev/day
Decay rate:       2.65e-06 rev/day^2
Epoch rev:            3055
Checksum:              303

Satellite: CO-58
Catalog number: 28895
Epoch time:      06144.73982533
Element set:    0441
Inclination:      098.1689 deg
RA of node:       043.4049 deg
Eccentricity:    0.0016879
Arg of perigee:   243.8161 deg
Mean anomaly:     116.1328 deg
Mean motion:   14.59406434 rev/day
Decay rate:        9.0e-07 rev/day^2
Epoch rev:           03043
Checksum:              322

Satellite: NCUBE2
Catalog number: 28897
Epoch time:      06144.65103878
Element set:    0073
Inclination:      098.1662 deg
RA of node:       043.3079 deg
Eccentricity:    0.0016102
Arg of perigee:   246.7978 deg
Mean anomaly:     113.1533 deg
Mean motion:   14.59561155 rev/day
Decay rate:       1.61e-06 rev/day^2
Epoch rev:           02269
Checksum:              305

/EX



----
Via the keps mailing list at AMSAT.ORG courtesy of AMSAT-NA.
To unsubscribe, send "unsubscribe keps" to Majordomo@amsat.org

--- ViaMAIL!/WC v1.60d
 * Origin: Chowdanet (401-724-4410) telnet://chowdanet.com  (1:323/120)